Regional Weather Roundup
Issued by NWS

Home | Current Version | Previous Version | Text Only | Print | Product List | Glossary Off
Versions: 1 2 3 4 5 6 7 8 9 10 11 12 13 14 15 16 17 18 19 20 21 22 23 24 25 26 27 28 29 30 31 32 33 34 35 36 37 38 39 40 41 42 43 44 45 46 47 48 49 50

000
ASUS43 KMKX 290800
RWRWI

WISCONSIN REGIONAL WEATHER ROUNDUP
NATIONAL WEATHER SERVICE MILWAUKEE/SULLIVAN WI
200 AM CST MON DEC 29 2014

NOTE: "FAIR" INDICATES FEW OR NO CLOUDS BELOW 12,000 FEET WITH NO
SIGNIFICANT WEATHER AND/OR OBSTRUCTIONS TO VISIBILITY.

WIZ001-002-006>008-014>016-023>028-290900-
NORTHWEST WISCONSIN

CITY           SKY/WX    TMP DP  RH WIND       PRES   REMARKS
SUPERIOR ARPT  CLEAR      2  -6  70 NW7       30.45R WCI -11
ASHLAND        CLEAR     -5  -9  83 W6        30.39R WCI -18
HAYWARD        PTCLDY   -10 -14  82 CALM      30.37R
SIREN          PTCLDY    -6 -10  83 CALM      30.41R
CUMBERLAND     PTCLDY     1  -6  71 N6        30.35S WCI -10
RICE LAKE      PTCLDY    -1  -6  78 NW3       30.38R
CHETEK         PTCLDY    -2  -5  85 CALM      30.37R
LADYSMITH      PTCLDY    -5  -9  84 CALM      30.36R
EAU CLAIRE     CLOUDY     5  -1  76 NW5       30.39R WCI  -4
MENOMONIE      MOCLDY     8   1  75 N7        30.39R WCI  -4
NEW RICHMOND   PTCLDY     1  -4  77 N5        30.39R WCI  -8
OSCEOLA        PTCLDY     3  -2  79 CALM      30.44R
$$

WIZ003>005-009-010-017-018-290900-
NORTH CENTRAL WISCONSIN

CITY           SKY/WX    TMP DP  RH WIND       PRES   REMARKS
MANITOWISH WTR FLURRIES -15 -19  79 CALM      30.27R
ARBOR VITAE    PTCLDY    -9 -14  77 CALM      30.27R
WOODRUFF       PTCLDY    -9 -14  77 CALM      30.27R
RHINELANDER    PTCLDY    -4  -7  87 NW6       30.27R WCI -16
EAGLE RIVER    FLURRIES  -6 -12  77 CALM      30.25R
LAND O LAKES   FLURRIES   4   1  86 CALM      30.24R
PHILLIPS       PTCLDY   -15 -19  81 CALM      30.30R
TOMAHAWK       PTCLDY   -14 -19  79 CALM      30.29R
MEDFORD        MOCLDY   N/A N/A N/A CALM      30.29R
MERRILL        PTCLDY    -5  -8  85 CALM      30.29S
$$

WIZ029-030-035-036-043>047-290900-
CENTRAL WISCONSIN

CITY           SKY/WX    TMP DP  RH WIND       PRES   REMARKS
WAUSAU         PTCLDY     3   0  87 NW3       30.30R
MOSINEE        MOCLDY     7   5  92 N7        30.31R WCI  -5
MARSHFIELD     MOCLDY     7   2  80 N7        30.31R WCI  -5
STEVENS POINT  MOCLDY     7   4  87 N5        30.31S WCI  -2
WAUPACA        FAIR      15   9  76 N5        30.33S WCI   7
WAUTOMA        NOT AVBL
WISC RAPIDS    MOCLDY    12   6  77 N5        30.34R WCI   4
CAMP DOUGLAS   NOT AVBL
$$

WIZ011>013-019>022-031-037>040-048>050-290900-
NORTHEAST WISCONSIN

CITY           SKY/WX    TMP DP  RH WIND       PRES   REMARKS
ANTIGO         PTCLDY    -6  -9  86 CALM      30.27R
SHAWANO        PTCLDY    13   7  79 CALM      30.34R
OCONTO         PTCLDY    10   6  82 CALM      30.34R
STURGEON BAY   CLEAR     16   7  67 NW10      30.33R WCI   3
GREEN BAY      PTCLDY    15   7  70 N7        30.34R WCI   5
MANITOWOC      NOT AVBL
APPLETON       PTCLDY    16   9  73 N12       30.31S WCI   3
CLINTONVILLE   PTCLDY    14   7  73 NW5       30.33R WCI   6
OSHKOSH        MOCLDY    18   9  68 N9        30.31R WCI   7
$$

WIZ032>034-041-042-053>061-290900-
SOUTHWEST WISCONSIN

CITY           SKY/WX    TMP DP  RH WIND       PRES   REMARKS
LA CROSSE      CLOUDY    18  12  77 N6        30.36R WCI  10
SPARTA         MOCLDY    15  11  86 CALM      30.34R
VIROQUA        CLOUDY    18  16  90 N8        30.28R WCI   8
BOSCOBEL       CLOUDY    23  12  62 NE7       30.33R WCI  15
PRAIRIE DU CHI CLOUDY    24  17  75 CALM      30.32R
PLATTEVILLE    CLOUDY    25  21  86 CALM      30.28R
$$

WIZ056-057-062-063-064-067-068-290900-
SOUTH CENTRAL WISCONSIN

CITY           SKY/WX    TMP DP  RH WIND       PRES   REMARKS
REEDSBURG      CLOUDY    18  13  82 N3        30.31R
BARABOO/DELLS  CLOUDY    18  13  81 N3        30.30R
LONE ROCK      NOT AVBL
MINERAL POINT  CLOUDY    25  19  80 N8        30.27R WCI  16
MADISON        CLOUDY    21  14  74 N10       30.30R WCI  10
MIDDLETON      CLOUDY    24  16  72 NE6       30.30R WCI  16
WATERTOWN      MOCLDY    22  18  85 N7        30.29R WCI  13
MONROE         CLOUDY    25  21  86 N6        30.25S WCI  18
JANESVILLE     CLOUDY    28  21  74 N8        30.28R WCI  20
$$

WIZ051-052-058>065-066-070>072-290900-
SOUTHEAST WISCONSIN

CITY           SKY/WX    TMP DP  RH WIND       PRES   REMARKS
MILWAUKEE      MOCLDY    26  19  74 N7        30.29R WCI  18
WAUKESHA       PTCLDY    23  19  86 N5        30.29R WCI  17
MILWAUKEE/TIMM MOCLDY    27  19  74 N6        30.29R WCI  20
RACINE         CLOUDY    26  19  74 NW5       30.30R WCI  20
BURLINGTON     CLOUDY    23  20  89 CALM      30.28R
KENOSHA        MOCLDY    27  20  75 N6        30.28R WCI  20
FOND DU LAC    MOCLDY    19  10  68 N13       30.30R WCI   6
SHEBOYGAN      PTCLDY    19  11  70 N10       30.30R WCI   7
WEST BEND      PTCLDY    21  14  73 N8        30.27S WCI  12
JUNEAU         MOCLDY    19  15  84 N6        30.30R WCI  11
$$

LSZ147-162-290900-
LAKE SUPERIOR

STATION/POSITION TIME  TEMP    WIND        PRES    WAVE
                       AIR SEA DIR/SP/G            HT/PER
                 (UTC) (F)     (DEG/KT/KT) (MB)    (FT/S)
DEVILS ISLAND    0700    8     330/ 13/ 18 1030.1R
PORT WING        0740    8     310/ 11/ 15 1029.8R
SAXON HARBOR     0700    7     200/  6/  8 1028.1R
$$

LMZ867-665-643>646-290900-
LAKE MICHIGAN

STATION/POSITION TIME  TEMP    WIND        PRES    WAVE
                       AIR SEA DIR/SP/G            HT/PER
                 (UTC) (F)     (DEG/KT/KT) (MB)    (FT/S)
CHAMBERS ISLAND  0700   16     310/  8/ 13 1026.4R
NORTHPORT PIER   0710   18     320/ 16/ 22 1026.1R
SISTER BAY       0713          350/ 18/ 23   N/A
ALGOMA LAKESHORE 0745          330/  8/ 10   N/A
KEWAUNEE LAKESHO 0700   16     340/  7/  9 1025.6R
SHEBOYGAN LAKESH 0700   22 36  330/ 11/ 14 1027.0R
PORT WASHINGTON  0700   24     360/  4/  8 1026.4R
MILWAUKEE LAKESH 0700   28     340/  9/ 12   N/A
KENOSHA   LAKESH 0700   29     340/  4/  6 1024.7R
$$

TC  - TEMPERATURE IN CELSIUS
VSB - VISIBILITY IN STATUTE MILES
WCI - WIND CHILL INDEX
HX  - HEAT INDEX




USA.gov is the U.S. government's official web portal to all federal, state and local government web resources and services.